Theta_e
345 346 348 347 346 348 348 347 348 349 350 351 351 352 352 351 351 351 351 351 350 350 349 348 348 348 348 348 347 346 346 345 345 346 347 347 347 347 348 346 347 350 351 352 352 349 348 348 350 351 353 354 354 353 352 351 352 354 354 353 354 353 351 350 348 345 342 343 341 339 340 341 340 340 340 340 340 340 340 340 340 339 339 339 338
346 347 348 348 348 347 347 347 347 349 349 350 351 350 351 351 351 350 350 350 350 349 349 348 348 348 348 348 347 346 346 344 344 345 345 344 344 345 348 347 348 352 353 355 353 349 349 351 351 351 353 355 355 355 353 351 352 353 353 353 353 353 351 349 349 346 345 347 344 340 342 342 340 341 341 340 340 341 341 340 340 339 339 339 339
351 349 348 347 348 347 347 348 348 348 349 350 350 350 351 350 350 350 350 350 349 348 348 348 348 347 347 347 346 346 346 344 344 345 345 344 345 347 349 349 350 353 355 356 354 349 349 353 352 351 353 355 355 355 355 353 353 352 352 354 353 353 352 350 350 348 345 347 346 343 346 348 344 341 341 340 340 340 339 339 339 339 339 340 340
357 353 352 349 347 348 347 348 348 348 349 350 350 351 350 350 351 351 351 351 350 349 349 348 347 347 347 346 346 346 346 346 347 347 347 347 348 349 350 350 350 353 355 356 354 350 350 352 353 354 355 356 355 355 355 354 352 351 352 355 354 353 354 352 351 349 345 346 349 350 351 354 351 345 342 342 341 341 342 341 339 339 339 339 340
362 360 355 348 348 349 348 348 347 348 349 350 350 351 350 351 351 351 351 351 351 351 349 349 348 346 346 346 346 347 347 348 348 347 347 348 348 349 350 351 350 351 353 354 353 352 351 352 354 354 356 357 355 354 354 353 351 350 351 354 354 354 354 354 351 349 348 346 348 352 353 357 358 349 345 345 342 342 345 343 339 340 341 340 341
357 358 353 346 345 348 348 348 347 348 349 350 350 351 350 351 351 351 352 351 351 351 350 350 349 347 347 347 347 347 347 347 347 347 347 348 350 350 350 350 348 346 349 353 351 351 353 353 353 353 355 356 355 355 354 352 352 352 352 353 355 355 354 354 352 349 350 349 347 347 346 351 353 349 350 351 345 343 344 344 341 340 341 342 342
353 354 350 347 344 347 349 348 348 348 349 350 350 350 351 351 351 352 351 350 351 351 351 351 350 348 347 347 347 347 347 346 346 347 347 349 351 350 349 350 348 342 343 349 349 349 352 354 354 354 356 355 355 356 354 353 354 354 354 354 355 357 354 352 353 351 352 351 350 349 347 347 345 345 351 353 350 348 345 342 341 343 344 343 343
353 353 351 349 346 345 348 349 349 349 349 350 350 350 350 351 351 352 351 349 350 351 351 352 351 349 348 347 347 347 347 346 346 347 348 350 351 348 349 351 348 342 341 346 348 349 352 354 354 356 357 356 355 356 355 354 354 353 355 356 356 357 352 350 353 353 355 353 351 351 349 349 345 343 346 346 351 358 355 351 346 345 347 345 345
354 353 350 347 346 346 347 348 349 350 350 350 350 350 350 351 351 352 351 349 350 351 351 351 351 350 349 348 348 347 347 346 347 348 349 350 349 347 349 351 348 346 347 349 350 351 353 353 354 355 357 357 356 355 354 354 354 353 354 355 356 355 351 352 354 354 356 355 352 350 349 350 348 345 343 343 350 355 360 363 353 347 349 348 346
355 353 349 345 345 347 346 347 349 350 351 351 351 351 350 351 352 352 351 350 351 351 351 351 350 350 350 349 349 348 347 347 348 349 349 348 347 346 349 349 348 350 353 353 352 352 353 353 353 354 355 356 357 355 354 355 354 354 355 356 356 354 352 355 356 354 355 354 353 352 351 352 351 347 344 344 347 346 351 359 352 348 354 350 345
355 352 349 345 346 348 347 347 347 349 351 351 351 351 351 351 351 352 351 351 352 351 351 351 350 350 351 350 349 348 348 348 348 349 348 348 347 346 348 348 349 352 353 353 352 353 354 354 354 353 352 355 357 356 355 356 355 355 356 355 354 354 354 356 356 354 354 353 354 353 352 353 352 350 348 346 348 347 350 354 348 347 352 348 346
358 355 355 349 347 349 348 347 347 347 349 351 352 351 351 351 351 351 351 351 351 351 351 352 350 350 353 353 349 348 349 348 348 348 348 348 347 347 349 348 348 351 352 352 353 354 355 356 355 353 351 353 356 355 354 356 357 357 357 355 353 354 355 356 354 352 351 353 355 353 353 353 352 351 350 347 346 345 347 350 347 347 350 348 346
360 358 359 354 348 348 348 348 347 346 347 351 353 351 351 351 351 351 351 351 350 350 351 352 351 350 353 354 351 350 351 350 349 349 348 348 347 347 348 350 349 349 350 352 353 355 357 357 356 353 352 354 355 354 354 356 356 357 356 354 354 355 356 356 355 352 352 354 355 354 352 353 352 352 350 348 346 345 345 348 346 347 349 348 348
359 356 357 357 352 348 348 348 347 346 346 351 354 352 352 353 351 351 351 351 351 351 351 352 352 351 353 355 353 351 352 351 350 349 348 347 346 347 348 350 351 349 350 352 352 354 355 355 355 353 352 355 356 355 355 355 355 356 356 355 356 356 357 358 357 355 355 355 355 355 354 352 352 353 352 350 348 346 346 346 347 347 347 348 349
359 357 356 358 354 349 349 349 348 347 346 350 355 354 354 354 353 351 351 352 352 351 350 351 352 352 352 353 353 352 351 351 351 349 348 347 347 348 348 349 351 350 350 351 351 352 352 352 353 353 353 355 356 355 356 356 356 356 356 356 357 358 358 358 358 357 357 356 356 355 354 353 352 352 352 352 351 349 348 346 346 350 354 356 355
360 360 359 357 351 347 349 349 349 348 347 352 356 355 355 355 354 352 351 353 354 352 350 350 352 352 352 353 353 352 350 349 349 349 349 348 347 348 349 350 351 351 351 351 351 351 351 351 352 352 352 354 355 355 356 357 357 357 357 357 357 357 358 359 359 358 357 356 356 356 356 355 354 353 353 354 353 352 351 349 347 348 354 362 365
361 362 363 358 350 346 349 351 350 349 349 353 356 355 355 356 355 353 353 355 355 352 351 351 352 353 353 352 352 352 350 348 348 349 349 348 349 349 350 352 353 352 352 351 352 351 351 350 351 350 350 351 352 353 354 355 356 357 356 356 356 356 357 357 357 357 356 356 356 356 357 356 355 354 354 354 354 354 353 353 351 348 349 357 366
359 359 358 354 350 348 350 353 351 349 350 353 355 356 356 356 356 355 354 356 356 353 353 353 353 353 353 353 351 352 351 349 348 349 348 348 349 349 349 352 354 353 352 351 351 350 350 349 349 349 349 349 350 350 351 353 353 354 354 355 356 355 354 354 353 354 356 357 357 357 357 356 355 354 352 352 353 354 354 353 354 351 350 352 357
355 354 353 352 351 351 352 353 352 350 351 354 355 357 357 356 357 355 355 357 357 355 355 355 354 353 354 353 351 351 352 350 350 350 349 348 348 349 350 350 351 352 352 350 350 349 348 348 348 348 349 349 349 348 349 350 351 350 351 354 357 357 356 355 353 353 355 357 357 357 356 355 355 353 352 354 355 354 354 354 354 352 352 352 352
353 352 352 351 350 350 350 351 352 352 352 354 355 357 358 357 357 356 355 357 359 357 356 356 355 354 354 354 352 351 352 351 351 350 350 350 351 351 351 350 350 350 350 350 349 349 348 348 348 347 347 349 349 349 349 350 350 351 351 353 356 357 358 358 356 354 354 356 355 355 355 356 356 356 355 356 357 356 355 354 354 353 352 353 352
350 350 351 350 350 351 352 352 351 352 353 353 355 356 357 356 356 355 356 357 359 359 358 357 356 355 355 355 354 353 352 352 352 351 351 351 352 352 352 351 350 350 349 349 348 348 348 348 348 347 346 347 348 349 350 350 351 351 351 352 354 354 355 356 356 355 356 356 356 355 355 357 357 357 356 356 356 354 354 354 355 354 352 352 353
347 348 350 349 349 350 353 353 351 352 353 352 353 353 353 353 353 352 353 355 356 358 358 357 356 355 355 355 355 355 354 354 355 355 353 352 351 353 352 351 350 349 349 349 347 347 347 347 347 347 346 346 347 348 349 350 351 351 352 352 353 353 353 353 355 356 358 358 357 357 356 357 356 355 355 355 355 353 354 355 355 354 352 352 353
346 347 348 348 348 349 353 354 351 351 352 352 353 351 350 350 351 351 353 353 353 354 356 358 356 355 355 356 356 355 355 355 356 356 355 353 352 353 352 350 349 349 349 348 347 346 346 346 346 347 347 347 347 347 347 349 351 351 351 352 352 353 353 353 354 355 356 356 357 357 357 356 356 356 356 355 355 355 355 356 355 353 353 353 353
345 346 348 348 347 349 351 352 351 350 350 350 350 350 350 350 349 350 351 353 353 351 352 355 356 356 355 356 356 356 356 356 356 356 356 355 353 351 350 349 348 348 348 348 348 347 346 346 346 347 347 348 349 349 349 349 349 350 350 351 352 352 353 353 353 354 355 355 356 358 358 357 357 358 358 358 358 358 357 356 355 354 353 353 354
344 346 348 349 348 348 349 349 350 349 347 347 348 349 351 351 349 348 348 350 352 352 351 351 352 354 355 355 356 355 356 356 356 356 356 355 354 351 350 349 348 348 348 348 348 348 347 347 347 348 348 349 350 351 351 351 350 350 350 351 352 352 352 353 353 354 356 356 357 357 357 356 356 357 358 358 358 357 357 356 355 355 354 354 354
345 346 348 349 348 348 347 347 347 347 345 346 347 348 350 350 350 349 348 348 349 350 352 350 349 351 353 354 354 354 355 356 356 356 356 356 355 353 351 350 349 349 348 349 348 348 347 347 347 348 348 348 350 351 352 352 353 352 351 351 351 351 352 353 353 354 356 356 356 356 355 354 355 355 356 357 357 357 356 356 355 355 355 354 354
345 347 347 347 347 347 347 347 346 345 344 344 345 347 350 351 352 352 351 350 350 349 349 349 349 351 352 353 353 353 353 355 355 355 355 355 354 352 350 349 349 349 348 349 348 348 348 348 348 348 348 347 348 349 351 351 352 352 351 351 351 351 351 352 353 354 355 355 355 355 354 353 353 354 355 356 356 356 356 357 356 355 355 355 354
345 346 346 346 346 346 346 346 346 346 345 344 344 345 347 350 352 355 354 354 353 351 350 350 350 351 351 351 351 351 351 352 353 353 353 353 353 351 350 349 349 349 349 348 348 348 349 349 349 349 348 348 347 348 349 349 349 350 349 350 351 351 351 352 353 355 355 355 356 356 355 354 353 354 354 355 354 353 354 356 355 354 354 355 355
344 345 345 345 345 344 344 345 346 347 346 346 346 346 345 344 346 350 353 353 352 353 354 354 353 351 351 352 351 351 352 352 351 351 351 351 351 350 350 350 349 349 349 348 348 349 349 349 349 349 349 349 349 349 349 349 349 349 347 348 349 350 352 353 354 354 355 355 355 355 354 354 355 355 354 354 354 354 355 355 354 353 355 355 356
344 344 344 345 344 343 343 344 345 346 348 349 349 348 346 344 344 347 351 350 348 350 352 354 354 353 353 355 354 354 355 354 353 354 353 353 351 350 350 349 349 350 349 349 348 349 350 349 350 349 349 349 349 349 350 349 348 349 348 348 350 351 353 354 354 354 354 354 353 353 353 352 354 354 354 354 354 355 355 354 352 353 354 354 355
343 344 344 344 343 342 342 343 345 346 348 349 349 348 347 347 348 350 352 350 349 348 348 349 351 348 349 354 355 355 355 355 355 355 355 354 353 353 353 352 352 351 350 349 350 351 351 350 350 349 348 349 349 349 349 349 349 349 349 350 351 352 353 354 354 354 354 354 353 353 353 353 353 354 354 353 352 353 356 354 352 352 353 352 353
344 344 344 344 343 342 342 343 345 347 348 348 349 348 348 349 350 351 351 350 349 348 347 349 349 345 346 352 354 354 354 354 353 353 352 352 353 353 353 354 354 353 352 352 353 354 354 353 353 351 350 349 349 349 349 349 350 349 351 352 352 351 352 354 354 354 354 354 354 354 354 354 354 355 355 354 352 352 354 354 352 352 352 351 351
343 343 344 345 343 342 342 344 345 346 347 347 347 347 346 346 346 347 348 348 347 346 346 347 347 345 346 348 351 352 352 352 352 351 350 351 351 352 352 352 353 353 353 354 354 355 355 355 355 354 353 352 351 351 351 351 351 351 351 352 352 352 353 354 354 354 354 354 354 353 354 355 357 357 357 356 354 353 354 354 354 355 354 353 352
343 343 343 342 342 342 342 343 343 344 344 344 343 343 342 343 342 342 344 344 344 344 345 345 345 345 344 344 347 350 350 349 350 350 350 351 351 352 351 351 352 352 352 353 354 354 354 355 355 354 354 353 352 352 352 351 351 351 350 351 351 352 353 353 353 353 354 355 354 353 353 354 355 356 357 357 355 355 355 356 357 358 358 356 355
343 343 340 339 341 341 341 341 341 341 341 340 339 339 339 340 340 340 340 341 341 342 343 343 344 344 345 344 346 348 347 347 348 348 348 350 350 350 350 350 350 350 351 352 353 353 354 354 354 353 352 353 353 352 352 351 350 350 349 350 350 351 352 352 353 353 354 354 354 354 353 353 354 356 356 356 355 356 356 357 358 358 359 358 357
339 340 338 338 339 339 339 340 338 337 338 337 335 336 337 337 338 338 338 339 340 340 341 342 342 342 343 343 344 344 343 344 345 346 346 347 347 347 347 347 348 347 348 349 350 351 352 353 353 351 351 352 352 351 351 351 351 351 350 350 350 351 352 353 353 354 354 354 354 354 353 353 354 356 355 355 355 355 356 356 356 356 356 356 356
335 337 337 337 337 336 337 338 336 334 334 333 333 333 334 335 336 336 336 337 338 338 339 340 341 341 342 342 342 342 343 343 344 345 344 345 345 344 343 343 344 344 344 344 344 345 346 348 349 348 348 348 347 346 348 349 350 351 350 350 350 350 351 353 354 351 351 353 354 354 353 353 353 355 354 354 354 353 353 354 353 354 354 353 352
334 335 335 336 336 335 334 335 335 334 333 332 331 331 332 334 335 335 336 336 336 337 337 338 340 340 341 341 342 343 343 344 344 344 343 342 341 341 340 341 341 341 340 340 341 341 342 343 342 341 341 342 341 341 342 344 346 348 348 348 350 352 352 352 351 346 345 348 351 351 352 352 352 352 351 350 349 349 349 348 347 346 345 343 343
330 330 333 335 335 334 333 333 333 333 332 329 329 329 331 332 334 335 336 336 336 336 336 337 338 339 339 340 340 341 342 343 344 343 342 341 340 339 338 339 338 338 338 337 337 338 337 337 336 336 335 336 336 336 337 338 340 342 344 345 347 349 349 347 346 344 344 345 345 345 346 346 345 344 343 344 345 345 343 340 338 337 335 335 336
329 329 332 333 334 334 333 333 332 332 332 330 329 329 329 330 331 333 335 337 336 336 336 337 337 337 337 338 338 339 340 341 342 341 340 340 340 338 338 337 336 335 334 334 334 334 333 332 332 332 332 331 332 332 333 335 336 337 339 340 341 342 341 341 342 342 341 339 337 335 335 336 336 336 336 338 340 339 338 336 334 335 335 335 335
328 330 332 332 333 333 333 332 332 332 332 332 331 330 330 329 330 331 333 334 335 336 336 336 337 337 336 337 337 336 338 338 339 339 339 338 338 337 336 335 333 332 332 330 329 329 328 326 326 327 327 327 327 327 329 330 332 334 335 335 336 337 336 336 336 334 333 333 333 332 331 332 333 334 334 336 336 336 335 335 335 335 335 335 335
328 330 331 332 332 332 332 331 331 330 330 331 331 330 330 329 329 329 330 331 333 334 334 332 332 333 333 334 335 335 336 336 336 336 335 335 334 333 332 331 329 328 326 323 322 321 320 319 319 319 319 319 319 320 321 321 322 326 328 330 332 333 334 335 332 328 328 331 331 330 329 331 334 337 337 337 337 335 335 334 334 334 334 334 335
329 329 331 332 332 333 332 331 329 326 326 328 330 330 329 328 327 327 328 329 330 330 330 329 328 327 326 327 330 333 334 334 334 334 334 333 332 331 330 328 326 324 323 321 321 320 320 320 319 319 318 316 315 315 315 316 316 318 320 321 323 325 327 328 326 323 323 325 326 324 325 329 336 338 338 337 336 334 333 333 332 333 333 334 334
328 329 331 332 332 333 333 332 331 329 328 329 330 329 330 329 328 324 323 324 325 323 324 327 328 327 324 321 321 327 331 333 334 333 333 332 332 330 329 328 326 325 325 325 326 325 324 324 323 322 321 320 319 317 315 313 314 315 316 316 317 319 320 321 320 319 318 320 324 325 326 331 336 338 337 335 333 332 332 332 332 332 332 333 333
326 327 330 331 331 332 332 332 332 332 331 332 331 331 331 331 330 326 323 323 323 320 319 320 321 321 320 316 314 317 323 328 331 332 332 331 329 328 327 326 325 325 326 327 327 326 326 324 323 322 322 322 322 322 321 319 318 320 322 322 321 321 320 319 318 317 317 322 329 332 332 334 337 337 335 333 331 331 331 331 331 331 331 331 332
324 325 327 328 329 331 331 331 332 332 332 332 332 332 332 331 330 328 326 325 324 321 318 316 316 318 318 317 315 313 314 318 323 326 328 328 327 326 324 322 321 320 322 324 324 323 322 321 322 323 322 322 322 323 324 325 326 328 329 328 327 326 327 326 325 324 325 330 336 336 335 335 334 332 331 331 330 330 330 330 330 330 330 330 330
324 324 325 326 327 328 328 329 330 331 332 332 332 332 332 330 329 327 327 327 325 322 320 318 319 321 322 322 320 316 313 313 314 316 318 319 319 319 318 316 315 314 315 316 316 316 316 318 321 322 322 322 322 323 325 327 328 330 331 331 331 332 333 333 334 334 335 336 336 335 333 332 330 329 329 329 329 329 329 329 329 329 329 329 328
325 324 324 325 325 325 326 327 327 328 330 331 331 331 330 329 327 325 325 327 327 325 323 322 321 322 324 324 323 321 319 316 315 315 315 314 314 314 313 313 313 314 314 314 313 313 313 315 319 321 322 323 324 324 325 327 328 329 330 331 332 333 333 333 334 334 335 335 333 332 331 330 329 329 328 327 327 328 327 327 327 327 327 327 326
325 324 323 323 324 324 325 325 326 326 327 328 329 329 328 327 325 324 324 325 326 326 326 325 324 324 324 324 324 324 323 321 319 318 317 316 315 314 314 315 314 314 315 315 314 314 313 314 317 320 322 324 324 324 325 326 327 328 329 329 330 330 331 332 331 332 332 332 331 331 330 330 329 329 328 327 327 326 325 325 325 325 325 325 324
326 325 324 324 325 325 325 326 326 326 327 328 328 328 326 325 324 324 324 323 324 325 326 326 326 325 325 326 326 325 325 324 323 321 319 318 317 316 316 316 316 316 316 316 314 313 312 313 315 319 323 324 325 325 324 325 326 327 327 326 326 326 327 328 328 329 330 329 328 328 327 327 327 327 327 326 326 325 324 323 323 323 323 323 322
329 328 328 327 327 327 327 327 328 328 328 328 328 328 326 324 323 322 322 322 321 322 324 325 325 325 326 327 326 326 326 326 325 324 322 320 319 318 317 318 318 317 317 317 315 313 311 311 314 319 323 325 324 323 324 325 326 326 325 324 323 323 323 324 324 325 325 325 325 324 324 324 325 324 324 324 323 323 322 321 320 321 321 321 322
Wind_Speed
13 19 24 27 25 23 26 25 26 27 26 27 26 25 24 22 21 20 19 19 19 19 18 17 17 16 17 16 16 17 18 19 19 19 18 17 16 13 11 12 13 12 10 8 6 6 7 7 6 6 5 5 5 5 6 5 5 5 5 6 7 9 9 9 12 10 7 7 6 6 9 7 6 6 6 7 11 14 14 14 14 14 15 15 13
6 14 22 26 25 26 26 24 26 27 26 28 28 26 25 23 21 21 21 20 19 19 19 19 18 17 17 18 17 18 20 20 21 20 18 18 16 13 12 13 13 12 10 8 6 8 8 7 7 7 6 6 5 4 5 5 5 5 5 6 7 10 9 7 9 9 7 6 4 4 6 7 7 6 6 7 8 12 12 13 13 13 15 16 15
6 1 14 23 26 26 26 25 27 29 29 29 28 27 26 24 23 21 21 21 19 19 20 19 18 17 16 17 18 19 20 21 20 19 18 17 15 13 13 13 14 13 11 8 7 9 9 7 7 7 7 6 6 5 5 6 6 5 3 6 7 8 7 5 7 10 8 4 2 2 3 3 4 4 4 4 3 6 6 5 7 8 11 12 13
4 5 3 8 22 26 23 25 28 28 29 28 27 28 27 25 24 23 21 20 19 18 19 18 16 16 16 16 19 19 19 20 19 18 18 17 15 15 15 14 15 15 13 10 8 8 8 7 7 7 7 6 6 6 6 7 7 5 3 5 6 7 6 5 7 9 8 4 2 1 1 2 1 3 3 3 1 3 2 2 3 4 5 5 4
4 4 6 9 7 20 25 25 27 28 27 28 29 28 27 27 25 24 22 20 18 17 17 17 16 17 16 16 17 17 16 17 18 17 18 18 17 17 17 15 15 16 14 11 9 8 8 8 7 8 7 6 7 7 6 6 6 5 5 5 6 6 6 6 6 7 8 7 4 1 2 2 2 2 2 3 3 3 5 3 4 4 4 3 2
4 5 6 5 12 7 24 28 26 27 28 28 30 28 27 27 26 24 23 22 20 18 17 16 16 17 17 17 18 17 16 17 19 19 19 18 18 18 17 15 14 16 16 12 11 10 8 8 8 8 7 6 7 7 6 6 5 6 6 6 6 5 4 5 6 6 7 8 7 4 3 1 2 0 1 2 3 3 7 5 3 3 2 1 2
5 5 7 8 8 11 14 28 27 26 29 30 29 29 28 27 26 24 22 22 23 22 20 18 17 18 17 18 20 19 18 18 19 19 19 18 18 17 16 14 13 15 17 14 12 11 9 8 8 9 8 7 7 6 6 6 5 6 5 5 5 4 3 4 5 6 5 6 6 5 5 2 1 1 1 0 2 2 5 6 4 2 0 3 5
7 7 5 7 11 12 11 21 30 28 29 31 29 29 29 27 26 24 21 21 23 23 22 20 19 20 20 19 20 20 19 18 19 19 19 19 19 17 16 15 13 15 17 15 13 12 10 9 10 10 9 8 8 7 6 6 6 6 5 5 6 4 4 4 3 5 5 5 4 4 6 5 2 1 1 1 2 1 4 3 2 4 4 3 5
6 8 7 7 13 17 14 14 25 32 31 30 30 31 29 29 27 24 23 22 22 21 20 19 19 20 22 22 21 22 20 18 19 20 21 21 19 18 17 16 15 15 15 14 13 13 12 11 11 10 10 9 9 8 7 7 7 7 7 7 7 6 5 4 3 4 3 4 5 5 7 7 4 1 0 1 2 1 3 3 4 7 6 5 6
5 6 8 9 14 21 17 12 12 25 34 31 31 33 31 30 30 27 25 24 22 22 20 18 18 17 19 21 21 22 21 19 19 21 22 21 19 20 19 17 17 17 15 14 14 13 13 13 12 11 11 10 10 10 9 8 8 8 8 8 8 8 7 6 5 5 4 4 6 7 8 8 6 2 3 2 1 1 1 3 5 4 5 8 9
4 4 5 9 14 21 22 15 14 14 25 32 31 32 33 31 32 30 27 26 24 23 21 19 19 18 16 18 20 21 20 20 21 21 22 22 20 21 20 18 18 18 16 15 15 14 14 14 13 12 12 11 10 10 9 8 8 9 8 8 9 9 8 7 8 8 7 6 6 6 7 8 7 5 7 7 4 2 1 3 6 5 6 9 10
2 3 3 5 10 16 21 22 18 15 15 28 32 31 33 33 32 31 29 28 26 25 23 20 20 20 17 16 18 20 20 20 22 22 22 23 23 23 21 19 20 18 17 18 17 16 15 14 14 13 13 12 12 11 9 7 8 9 8 8 9 9 8 8 9 10 9 8 7 6 6 7 8 7 8 8 7 5 4 4 6 5 5 8 9
3 2 3 3 5 12 17 20 21 16 17 22 33 31 31 33 33 32 30 29 28 27 25 22 22 22 20 17 17 19 19 20 21 22 23 22 22 24 23 22 21 19 18 19 19 17 16 15 15 14 13 12 11 11 10 10 10 10 10 10 10 10 9 8 8 8 8 8 7 7 7 9 9 7 6 7 8 7 6 5 5 4 4 7 9
2 1 1 3 2 4 13 19 21 20 19 20 31 33 31 32 33 32 31 30 30 29 27 25 24 24 23 20 18 19 20 20 20 21 22 20 20 23 25 23 22 21 20 19 19 18 18 17 16 15 14 13 12 12 13 13 12 11 11 11 11 11 10 9 8 7 7 8 8 9 9 9 9 8 7 6 7 8 8 7 5 3 5 7 7
2 1 3 3 2 5 3 16 23 23 22 22 29 32 31 32 33 32 31 30 30 30 29 27 25 25 25 23 20 19 21 20 20 20 19 19 19 22 23 22 21 22 21 19 18 18 18 18 17 16 16 15 14 14 14 13 13 12 12 11 10 10 10 10 10 9 9 10 9 10 10 10 9 9 9 8 8 8 9 10 7 3 3 5 4
4 1 2 1 1 5 6 9 23 27 27 26 28 32 32 32 32 32 31 30 30 30 29 28 27 25 26 25 21 20 22 21 20 20 19 18 20 21 20 20 19 20 21 19 19 19 19 19 18 17 17 17 16 15 16 15 15 15 14 13 12 12 11 10 10 10 11 11 10 10 11 11 10 10 10 11 9 7 7 10 10 8 5 2 3
1 2 4 2 2 1 5 1 17 27 28 28 30 32 33 32 31 31 29 28 29 29 29 28 27 26 26 26 23 21 22 23 21 21 22 21 20 21 20 19 18 19 21 21 20 20 21 21 20 19 17 18 18 17 17 18 17 17 17 16 15 14 14 14 12 12 12 12 12 12 12 12 11 10 10 9 8 6 5 7 10 11 9 5 1
1 1 3 2 2 2 5 5 8 22 26 27 29 30 30 32 33 33 30 28 29 29 28 27 28 27 26 26 25 22 22 22 21 21 23 23 21 21 21 21 21 19 20 21 22 22 21 21 22 22 20 20 19 18 18 18 18 18 17 17 16 15 16 17 16 15 13 12 12 13 14 13 12 11 11 9 8 9 8 8 10 11 12 11 7
2 4 4 3 7 10 14 15 6 13 23 26 27 27 28 31 33 33 31 29 29 30 29 28 28 29 27 27 27 25 22 22 20 20 22 22 22 21 21 21 22 21 21 21 22 23 23 23 23 22 22 22 21 19 18 18 17 17 17 17 16 14 15 16 15 15 15 14 14 15 15 14 13 13 13 11 10 11 12 11 10 11 11 14 15
4 4 5 4 8 11 13 18 17 4 13 24 27 27 30 33 34 34 31 27 26 30 32 31 30 29 27 26 27 27 25 24 23 21 22 22 21 21 21 20 21 22 23 23 22 22 23 24 24 22 21 22 22 21 20 19 18 17 17 17 17 16 16 17 15 15 15 16 17 16 16 14 13 12 12 11 10 12 12 12 12 13 10 11 14
4 4 5 5 7 10 9 8 13 13 4 11 19 23 27 28 27 27 28 28 28 30 31 31 32 31 28 26 27 27 26 25 25 23 24 24 23 23 23 22 21 22 23 24 24 23 23 24 25 25 23 21 21 22 22 21 21 19 17 17 18 18 19 19 18 17 16 17 18 17 16 15 14 14 13 11 10 12 13 13 13 12 9 8 9
4 4 4 4 5 7 9 10 7 6 9 6 10 17 20 20 17 14 17 21 23 27 31 30 30 31 30 27 26 26 26 25 25 24 24 25 25 25 25 24 24 25 25 25 25 24 23 23 24 26 26 24 22 22 22 21 22 21 20 20 20 19 19 18 18 19 18 17 18 19 18 17 16 16 15 13 12 12 14 15 13 11 10 9 8
5 4 2 2 4 6 7 10 11 8 5 6 6 11 15 20 22 20 20 19 16 17 24 28 28 29 29 28 26 26 27 26 25 25 25 25 26 27 26 25 23 23 25 26 26 24 23 22 22 24 26 26 25 24 23 23 22 23 23 23 22 21 21 19 19 20 19 17 17 19 19 18 16 15 14 12 12 13 12 12 11 10 10 9 8
5 5 2 3 4 6 7 8 11 11 8 7 8 8 8 12 18 20 22 22 19 16 18 22 26 28 27 26 26 26 28 29 28 27 26 24 23 24 25 24 21 20 21 22 22 23 21 20 21 23 25 26 26 25 24 24 24 25 25 26 25 23 23 22 21 20 18 18 18 19 19 17 15 15 15 13 13 12 11 10 10 9 9 9 9
6 5 4 3 3 5 6 7 9 12 13 11 9 7 8 7 9 11 14 17 18 19 18 18 21 25 26 24 23 24 26 30 31 30 28 25 22 21 22 22 21 19 20 20 19 20 20 19 20 22 25 26 26 25 25 25 25 27 28 29 28 26 25 25 23 21 19 19 19 21 22 19 16 15 16 16 15 14 13 11 10 10 10 10 11
6 6 5 4 4 4 5 6 8 10 11 10 9 8 8 8 8 8 9 11 14 18 20 17 19 22 24 22 20 21 24 28 30 30 29 27 24 21 19 19 20 20 21 21 20 20 21 19 19 20 22 23 23 24 25 24 23 23 26 30 31 29 27 26 24 23 23 22 22 23 23 20 17 16 17 18 17 15 14 13 12 11 11 11 11
5 5 5 5 4 4 4 7 8 9 9 10 10 9 9 8 8 8 8 10 13 17 20 20 17 19 20 20 18 18 21 24 26 26 26 26 24 22 19 17 17 18 18 20 21 22 23 22 21 21 22 23 22 23 24 24 23 20 21 26 30 31 29 25 24 25 26 25 24 23 22 20 18 17 17 17 17 16 14 14 13 12 12 12 12
4 5 5 5 5 5 6 6 6 9 10 10 8 7 8 9 9 9 9 9 11 13 15 16 15 15 14 14 13 13 14 17 18 19 19 20 21 21 19 16 15 16 17 18 18 19 20 22 22 21 23 25 26 26 26 28 28 26 21 22 27 30 30 26 25 26 25 25 25 24 23 20 18 16 15 16 16 17 16 15 14 13 12 13 12
4 4 4 4 4 4 6 8 5 3 4 5 5 5 7 8 8 7 7 6 9 11 12 13 12 11 8 4 4 6 7 9 9 10 11 13 16 17 16 15 14 15 17 18 17 15 15 16 18 20 22 25 26 28 29 29 30 29 25 21 24 27 27 25 23 22 22 21 21 21 20 18 16 16 17 17 15 16 17 16 14 13 12 13 13
4 4 4 3 3 4 6 7 8 7 5 4 3 5 7 7 6 5 4 4 5 7 9 11 12 11 8 6 5 3 4 5 5 5 5 6 9 11 12 13 14 14 16 17 17 15 13 13 15 18 22 24 25 26 27 27 27 26 24 22 23 26 25 22 21 20 19 19 18 17 17 17 17 18 19 18 14 14 16 16 13 12 13 13 14
4 4 4 4 3 5 7 7 8 8 8 8 7 6 5 3 3 4 4 3 3 5 7 8 9 9 10 10 9 5 3 4 4 3 3 3 4 5 7 8 10 10 11 13 13 12 11 11 12 15 18 20 21 22 22 24 25 25 23 21 24 29 29 24 22 22 21 20 19 16 15 17 18 19 20 18 15 14 15 15 13 13 13 14 15
3 3 4 4 3 5 6 7 7 8 9 9 10 11 10 7 6 5 3 3 3 5 7 8 7 7 8 8 8 6 4 3 1 1 3 3 3 3 4 5 6 6 8 8 8 8 8 8 9 12 14 14 14 16 17 20 22 24 25 24 26 30 30 26 23 23 22 21 19 16 15 17 18 18 18 18 17 16 15 14 13 13 14 15 16
4 4 3 3 4 6 8 8 9 10 12 13 14 15 14 13 12 10 8 6 5 5 6 6 5 6 7 6 5 5 6 5 3 2 2 2 2 2 3 4 4 5 7 7 8 7 7 7 8 9 8 9 10 13 15 18 20 22 24 25 26 28 27 25 23 22 21 20 19 16 16 16 16 15 15 15 15 15 14 13 13 13 15 16 16
4 4 4 4 6 9 10 12 13 13 16 18 18 18 17 16 16 15 14 12 11 10 8 6 6 7 9 8 7 8 8 6 4 4 4 3 1 1 2 2 3 4 4 5 7 7 7 9 10 8 8 8 9 10 12 15 18 20 21 22 23 24 24 23 22 21 19 19 19 17 16 17 15 13 12 13 13 14 14 14 14 14 15 15 14
4 4 5 6 7 10 11 13 14 15 18 20 19 18 19 18 17 17 17 16 15 13 11 9 9 9 9 9 9 9 6 4 4 5 6 5 4 1 1 1 2 3 3 3 4 5 6 8 7 7 8 9 10 10 10 11 14 16 18 19 20 21 22 22 21 20 18 17 16 15 13 14 13 12 11 12 13 13 13 12 12 12 13 13 13
3 4 7 7 7 10 12 12 13 16 18 19 18 17 18 19 18 17 17 17 16 16 14 12 12 12 12 12 11 10 8 6 6 7 8 8 7 5 4 4 4 4 4 3 3 3 5 6 5 4 4 7 9 10 11 12 13 14 16 17 18 19 21 22 21 18 15 14 13 13 11 10 11 12 11 11 11 10 10 10 10 11 12 13 14
4 6 8 8 7 10 13 13 14 17 18 17 18 18 19 20 19 18 18 18 18 17 15 14 14 14 15 15 15 15 14 12 12 13 14 13 11 10 9 8 7 7 7 6 6 5 4 4 3 1 1 3 5 7 10 12 13 14 15 16 16 17 19 20 18 13 11 11 11 11 12 11 10 10 10 9 9 8 8 8 9 11 13 14 15
5 6 8 8 9 10 13 14 14 15 14 15 17 18 19 18 17 18 19 19 19 18 16 16 15 16 17 18 18 19 18 16 16 16 17 16 15 14 13 12 13 13 13 12 11 11 11 9 8 7 5 2 3 5 7 10 12 15 15 14 13 14 16 18 16 12 10 9 7 6 8 8 7 6 6 4 4 4 4 6 7 9 11 13 14
6 7 8 9 9 8 10 13 15 12 11 13 16 17 17 16 14 15 17 18 18 17 17 17 16 17 18 19 20 20 20 19 18 18 19 18 16 15 15 15 16 17 17 17 16 16 16 14 12 12 9 7 7 7 7 6 7 8 10 10 9 9 9 10 11 12 11 8 9 9 6 5 4 2 1 1 1 1 3 5 6 8 10 11 12
5 6 7 8 7 7 9 14 15 11 8 10 11 13 15 15 14 15 17 17 17 17 16 17 17 18 19 19 20 21 21 20 20 19 19 17 15 15 15 15 16 17 18 19 19 19 19 18 16 14 14 13 12 11 11 9 8 7 4 3 5 4 3 4 2 11 17 14 10 10 9 7 7 6 5 4 3 3 4 5 6 7 8 11 13
5 6 8 8 8 9 11 14 16 13 10 9 9 9 11 13 14 16 17 18 18 18 17 17 17 17 18 18 19 20 21 21 20 19 18 16 15 15 15 15 17 17 18 19 20 20 20 20 18 17 16 16 14 14 14 12 10 10 9 8 9 10 9 9 7 6 17 18 13 10 9 9 9 9 8 8 7 6 6 6 6 7 9 11 13
10 11 12 12 12 13 13 15 15 14 11 10 10 10 12 15 15 15 17 19 21 20 20 19 19 18 18 18 18 19 20 21 20 20 20 18 17 17 17 17 18 19 20 21 21 21 21 20 19 18 17 16 15 14 14 14 13 13 13 12 13 12 10 9 8 9 13 17 14 10 9 10 11 11 10 9 8 8 9 9 9 9 10 11 11
15 15 15 16 14 13 14 15 15 14 11 10 9 10 13 17 17 16 16 17 19 19 19 19 20 20 21 21 20 19 19 20 20 21 21 20 19 18 19 19 20 20 21 21 20 20 20 20 19 18 16 15 14 14 13 14 15 15 16 15 15 14 12 10 10 11 13 14 14 11 10 11 12 12 11 10 9 10 11 11 10 9 9 9 9
17 17 18 18 16 14 14 14 14 15 15 13 9 10 13 15 16 16 17 18 18 18 18 17 17 18 20 22 22 21 19 19 19 19 20 21 20 20 20 19 19 20 20 19 18 18 18 18 18 18 16 15 13 13 12 12 13 14 14 14 13 12 10 10 10 11 12 13 13 11 9 9 10 11 11 10 11 12 12 12 11 11 11 11 11
18 18 18 18 18 17 15 12 11 13 14 12 9 9 12 13 13 14 16 17 18 20 21 21 20 20 21 22 22 22 20 19 17 17 18 19 19 19 20 18 18 18 17 16 16 15 16 16 16 16 16 15 14 13 13 12 12 13 12 12 11 10 9 9 9 10 11 12 12 10 9 10 11 11 11 11 13 14 14 13 13 13 15 17 16
18 17 17 17 16 16 14 12 12 13 13 13 12 12 13 14 13 12 13 15 16 19 22 23 23 24 24 23 23 22 21 20 19 17 17 17 17 17 18 18 17 18 17 16 15 15 15 15 15 14 14 14 15 15 15 14 14 14 14 13 12 12 12 11 11 10 11 12 13 14 14 14 14 14 14 15 15 15 15 15 15 15 17 19 18
18 17 18 17 15 14 13 12 12 12 13 14 14 14 14 14 14 14 15 15 15 17 19 21 22 22 21 21 22 21 20 21 21 20 19 18 17 17 18 19 18 18 18 17 16 15 15 15 15 14 14 15 16 17 17 17 17 17 18 17 18 18 17 17 17 17 17 18 19 19 18 18 17 17 16 16 16 16 16 17 17 17 18 19 18
18 19 19 18 17 16 15 15 14 13 12 12 12 13 13 13 14 16 17 19 18 17 16 16 17 17 18 18 18 18 18 18 19 19 20 20 19 18 18 18 17 16 16 15 15 15 14 14 14 14 15 16 18 19 19 19 19 19 19 20 21 21 20 21 22 22 22 21 20 19 19 18 17 17 17 17 17 17 17 18 18 18 18 19 18
19 19 18 18 17 17 17 16 15 13 13 13 13 13 13 14 15 16 17 19 21 20 18 15 13 12 13 14 14 14 15 15 15 16 16 17 17 17 17 16 15 14 14 14 14 13 13 13 13 14 15 16 17 18 18 18 18 19 19 18 19 19 18 18 19 18 18 18 18 17 17 17 16 17 17 17 17 17 18 19 19 19 19 19 19
18 17 16 16 16 16 16 16 14 13 13 14 14 14 14 15 16 16 15 17 18 19 20 18 15 12 11 10 10 10 10 10 10 11 12 12 13 14 14 13 13 13 13 13 12 12 11 12 12 13 14 15 15 15 15 15 16 18 18 18 17 16 15 14 13 12 13 15 17 18 17 17 16 16 16 16 15 15 16 17 18 19 19 19 20
20 19 17 16 15 14 15 14 13 12 13 13 13 13 13 13 14 14 15 16 15 16 17 17 17 17 15 13 12 10 8 7 6 6 6 7 8 9 10 11 11 11 11 11 11 10 10 10 11 12 13 14 14 13 12 13 16 17 17 18 17 16 15 14 11 11 15 17 18 18 18 17 16 16 15 15 15 15 15 16 17 19 19 19 19
Wind_Direction
163 153 145 151 160 161 162 163 163 166 168 168 170 172 172 174 178 179 179 180 180 181 181 182 184 185 189 192 193 194 193 193 195 195 198 199 195 194 193 187 186 184 182 190 205 212 210 208 207 204 220 240 239 251 266 265 277 284 299 325 342 345 346 354 357 355 347 342 328 251 231 225 226 219 218 240 242 239 245 251 253 260 262 263 264
159 154 150 154 162 164 164 163 162 163 166 167 167 170 173 176 180 178 177 179 180 182 181 182 184 186 190 192 192 193 194 194 195 197 201 201 197 198 197 192 190 187 186 196 210 205 195 195 205 207 218 239 236 258 269 255 261 267 298 332 353 352 348 358 8 17 10 345 331 277 257 251 256 250 251 268 249 238 251 251 246 253 255 258 261
353 141 154 159 158 158 160 157 159 163 164 166 167 168 171 175 178 179 177 177 180 183 182 181 185 188 190 191 188 188 191 194 197 200 201 200 198 198 200 199 194 191 195 203 205 196 190 194 205 210 219 234 236 248 253 246 252 251 303 335 341 347 356 20 26 28 21 357 8 348 298 276 290 291 283 303 258 218 230 231 223 232 241 253 258
13 354 340 183 156 150 154 153 155 159 162 164 166 167 169 173 176 177 178 180 182 185 184 183 184 187 188 188 188 188 190 193 197 203 204 202 202 201 203 203 196 195 199 199 196 193 195 204 211 212 215 226 234 240 242 239 245 253 297 327 324 336 1 26 34 37 35 40 70 347 9 54 343 314 312 345 52 158 148 125 160 185 212 232 246
143 98 357 300 194 153 150 153 155 156 161 164 165 167 170 173 177 178 179 183 187 188 187 186 186 189 188 186 188 191 193 196 201 207 206 205 210 210 206 205 201 199 200 197 195 194 199 210 214 212 212 222 229 232 237 236 240 257 276 293 299 319 355 15 36 48 47 53 64 68 31 34 251 280 332 335 1 53 43 58 141 144 151 159 168
149 136 145 263 284 205 153 154 158 157 162 166 167 169 173 176 179 180 181 182 188 192 192 193 192 191 191 189 187 189 194 199 202 201 201 207 216 215 207 205 207 204 203 202 201 200 205 217 219 218 220 222 222 225 232 232 243 270 273 267 272 290 334 2 24 43 55 58 59 76 70 342 250 262 85 311 328 22 37 51 135 125 112 193 262
154 150 162 174 249 262 174 157 161 162 164 167 169 171 173 179 182 183 185 183 187 193 196 201 203 194 192 193 191 192 198 199 198 197 201 209 212 211 206 205 211 210 208 208 209 209 212 221 224 221 222 219 215 222 229 229 250 278 269 242 240 256 293 332 11 23 39 51 54 63 53 28 313 11 137 227 323 333 23 60 115 115 356 290 301
157 154 173 165 185 235 227 172 164 165 168 167 170 174 175 180 183 185 187 186 187 195 200 202 203 199 196 197 197 200 202 199 199 204 208 208 207 206 206 207 214 212 208 209 212 215 220 222 221 217 218 219 215 221 231 236 254 264 241 222 229 245 274 287 344 11 11 15 29 43 35 35 40 41 127 149 135 251 340 29 60 349 325 307 314
166 162 168 171 180 199 225 208 173 165 169 171 171 175 178 180 182 184 186 188 191 199 205 201 197 197 196 197 199 201 204 200 200 204 204 203 204 204 205 211 216 209 203 208 214 219 225 223 220 219 221 221 221 224 231 240 255 252 231 224 237 252 262 264 293 335 344 342 344 350 4 12 9 2 233 182 129 153 293 286 319 336 331 326 326
178 172 166 177 193 193 203 241 216 174 169 172 174 176 179 181 182 184 186 190 196 201 205 204 200 195 192 194 194 191 195 196 193 196 197 200 203 203 206 213 212 207 207 215 220 222 225 224 224 226 223 222 223 225 233 247 252 246 238 234 244 255 252 252 272 287 292 304 320 327 337 348 342 297 246 254 218 169 256 269 292 314 311 314 322
188 173 172 178 187 185 183 204 244 221 177 170 173 176 177 180 182 184 187 191 197 200 201 203 204 201 195 195 194 187 187 191 190 192 196 200 203 205 209 210 205 206 213 220 223 222 223 224 228 232 226 222 223 224 233 249 244 238 245 248 248 249 250 257 265 269 277 281 299 319 329 333 329 308 286 270 244 217 229 272 284 293 295 298 313
203 158 164 168 161 164 173 185 207 244 211 173 170 175 175 179 182 183 188 192 194 198 200 201 202 203 199 195 196 193 191 194 195 197 200 202 205 209 210 207 203 208 216 220 222 221 221 224 229 231 227 221 222 224 230 236 229 231 244 250 245 244 249 264 265 263 268 267 275 298 312 314 314 318 306 278 251 242 239 255 280 299 298 294 312
207 164 147 143 147 160 176 186 186 213 234 185 169 174 175 178 182 182 186 192 194 197 200 200 201 202 199 196 199 200 199 201 202 204 204 205 209 211 210 207 206 211 215 217 220 221 223 227 228 228 222 219 223 228 234 235 230 234 244 250 248 244 247 262 264 258 260 261 269 285 294 299 300 305 306 281 260 252 244 254 282 285 268 285 308
192 214 72 101 81 151 183 194 183 190 226 201 171 173 176 177 182 183 185 191 193 197 199 200 202 203 201 200 203 205 207 210 209 209 207 206 209 209 209 208 210 215 216 215 220 224 229 232 230 226 219 219 232 240 240 239 236 237 243 247 245 241 244 256 263 261 265 267 273 285 295 300 299 297 297 287 270 258 252 257 273 279 266 274 294
329 359 30 91 76 32 159 198 188 184 210 206 175 173 177 177 182 184 185 189 192 195 199 201 204 205 205 205 206 208 212 214 214 214 212 208 205 205 209 212 214 218 219 221 226 228 232 235 232 230 224 222 232 240 240 240 242 243 243 240 236 238 244 250 256 264 270 271 271 282 294 298 299 299 296 291 283 273 274 274 265 251 274 285 292
334 342 72 85 162 32 30 193 188 186 201 201 179 174 178 178 181 184 186 189 192 195 198 202 205 205 206 207 208 210 213 215 216 218 218 213 209 208 212 216 219 221 221 225 231 231 234 236 235 235 230 226 229 235 238 241 244 247 246 242 239 240 245 246 247 256 266 272 275 281 289 291 294 297 292 289 290 288 294 293 272 239 222 270 311
291 212 155 135 160 81 11 193 189 192 197 192 181 178 179 177 178 182 185 188 192 195 198 202 204 204 205 208 211 212 213 215 217 219 220 219 220 219 218 219 222 224 224 227 231 233 237 239 237 237 233 230 231 234 239 242 246 249 249 247 246 244 246 250 249 252 263 273 274 277 281 283 291 300 297 293 298 304 312 313 292 260 235 223 240
312 35 116 112 82 61 1 6 197 198 194 184 179 180 179 177 179 182 184 187 192 195 197 200 202 202 203 208 211 213 215 217 217 219 220 221 225 227 225 226 226 227 231 233 232 232 236 239 239 239 237 235 234 236 241 245 248 251 250 247 248 250 252 253 253 253 261 270 270 270 274 276 282 291 294 292 291 295 298 307 310 286 256 240 227
21 40 53 49 39 23 356 350 335 196 185 175 174 178 177 176 181 185 186 188 191 193 195 198 201 201 203 206 210 212 216 216 215 215 217 220 225 228 229 231 230 228 234 239 237 234 235 238 240 241 240 239 237 238 242 245 248 251 249 244 246 252 255 256 255 254 256 263 266 267 270 274 280 283 286 288 285 287 289 290 302 302 279 260 248
30 44 57 62 65 53 14 353 353 360 171 169 169 174 177 178 182 186 185 185 190 193 194 197 199 200 203 206 210 212 214 216 216 217 218 220 224 227 228 229 228 228 233 239 241 238 238 240 241 241 240 240 240 241 243 244 246 248 248 247 248 251 254 257 259 257 255 259 264 268 268 270 279 283 283 284 282 282 283 281 288 300 302 285 261
16 32 56 53 66 82 78 41 8 5 45 156 164 167 171 175 180 184 183 184 190 194 198 200 199 198 200 206 211 213 214 216 218 220 222 221 223 226 227 229 230 231 234 237 239 241 242 242 242 243 241 240 240 241 243 245 246 247 248 249 250 251 255 256 257 258 262 265 265 266 267 267 272 280 280 277 278 281 282 283 287 291 298 302 273
7 24 61 62 60 78 96 105 97 38 35 71 143 154 156 160 165 176 186 192 196 198 201 205 203 199 198 202 209 213 214 217 217 220 223 222 222 226 227 229 232 235 236 236 237 240 241 239 241 243 242 241 241 242 243 244 244 247 248 249 249 251 254 255 254 257 263 269 266 262 265 269 273 276 275 272 275 281 285 288 289 285 284 290 278
360 14 65 133 110 102 103 103 114 122 85 63 107 139 150 163 170 178 189 202 213 212 209 209 207 204 200 200 206 211 213 215 216 218 220 221 223 227 229 229 232 235 235 234 236 239 240 239 239 239 238 239 242 244 246 246 245 247 248 248 248 248 251 252 252 255 261 265 264 260 266 275 280 278 275 276 277 278 283 286 282 276 276 276 265
6 18 65 160 132 101 94 88 98 110 95 55 48 67 102 154 172 178 185 196 206 214 221 220 213 208 204 203 206 210 213 214 215 218 220 221 222 223 226 228 231 232 230 230 234 236 239 240 238 234 233 235 238 240 244 246 246 248 249 248 248 247 249 251 252 254 259 262 260 258 262 271 277 275 271 272 274 274 276 276 270 269 271 269 264
15 19 51 99 99 84 86 80 80 87 85 75 69 73 83 115 159 182 194 197 194 196 210 228 229 216 207 207 210 211 213 214 214 217 220 223 224 223 224 227 231 233 231 231 235 236 238 242 242 236 232 231 234 236 238 242 245 247 249 248 248 248 249 250 251 252 254 255 255 254 256 258 258 260 263 267 271 272 272 272 271 273 272 269 268
17 18 37 66 78 87 107 104 85 84 98 115 134 150 148 137 146 171 197 204 196 193 197 216 241 233 212 207 211 210 211 212 213 216 220 224 228 231 231 231 234 236 236 237 238 238 239 243 247 244 236 232 234 235 237 241 246 252 255 252 249 249 251 251 249 248 249 252 254 256 259 259 254 254 260 266 267 263 262 266 269 273 272 267 263
23 27 26 34 49 57 89 117 122 123 142 167 166 153 149 145 143 152 175 196 201 197 192 197 227 239 218 205 208 209 210 213 214 217 222 225 230 233 233 234 236 239 240 241 242 242 241 242 246 248 244 240 240 241 241 240 243 251 261 262 254 247 247 248 245 244 246 251 255 258 262 264 259 258 264 272 272 263 258 262 267 267 265 260 254
39 48 38 28 29 27 41 74 131 160 181 201 194 155 143 142 144 154 168 191 200 194 186 186 208 237 232 211 207 210 211 214 216 216 220 224 227 229 230 232 238 243 243 243 244 245 243 241 243 245 244 243 244 246 247 245 244 244 247 264 266 253 244 242 242 244 247 251 255 259 263 266 263 260 264 271 272 267 261 261 263 262 258 255 253
35 42 39 37 35 21 27 37 53 118 177 214 209 195 193 181 170 165 164 182 195 185 171 166 180 210 228 210 199 207 204 208 214 213 213 218 223 228 231 235 243 246 242 239 240 243 246 245 246 246 243 242 243 245 246 245 245 243 239 249 263 256 244 238 238 241 246 250 253 256 261 263 258 252 252 250 248 252 258 261 262 260 253 250 254
27 23 15 22 39 29 26 30 29 38 54 73 127 185 215 217 208 202 182 171 176 169 164 159 158 161 155 141 150 179 191 197 204 209 209 212 222 232 239 242 245 246 244 243 243 247 252 255 256 252 245 243 244 246 248 247 246 245 239 238 247 250 244 237 236 239 243 247 252 256 258 256 249 249 251 248 239 240 252 260 261 257 254 253 255
15 3 356 355 24 36 29 25 24 36 58 74 96 130 161 175 178 189 194 185 153 130 139 154 154 148 144 147 154 158 169 185 187 200 217 216 217 227 236 239 241 243 244 244 243 243 243 246 253 255 250 247 249 253 255 253 249 244 238 233 239 245 245 241 241 244 247 251 255 256 252 244 243 248 251 250 247 244 248 257 262 259 259 259 257
359 349 354 353 10 33 26 21 29 47 63 77 87 99 109 112 110 123 149 180 174 131 119 127 136 143 141 134 135 143 149 154 166 237 266 270 255 236 229 227 231 235 231 228 229 229 225 228 239 246 247 247 252 255 254 252 249 244 241 238 236 238 240 243 245 248 250 251 252 251 244 237 240 248 252 252 251 247 246 255 265 268 265 264 262
350 352 9 13 17 25 27 31 47 63 71 78 84 86 87 89 90 95 106 116 121 121 124 130 137 159 162 140 121 137 141 125 93 50 11 325 290 258 228 215 218 225 221 217 220 222 218 220 226 231 235 237 242 247 245 242 239 237 238 240 240 239 242 245 246 246 247 246 244 241 238 236 239 247 254 255 248 241 242 249 260 269 272 269 266
1 5 13 23 34 34 34 40 51 66 75 78 81 82 83 85 87 88 91 93 96 100 108 119 129 155 176 177 160 149 143 129 107 87 75 72 59 256 226 210 208 211 209 206 212 223 229 231 232 232 232 232 235 242 243 240 237 235 234 236 241 246 249 249 245 242 242 241 239 235 232 236 243 246 249 248 241 240 247 255 260 269 275 275 272
7 18 11 14 39 45 41 45 52 64 76 79 80 83 86 87 86 86 86 87 90 93 96 101 106 115 133 147 150 145 137 131 123 106 96 95 95 95 143 157 159 161 163 176 190 209 225 232 242 254 247 240 245 255 260 258 251 247 245 244 244 247 249 249 245 241 239 239 240 236 232 235 238 236 235 237 239 245 253 260 267 271 275 278 278
16 35 24 22 48 63 60 60 64 72 79 81 82 86 88 88 88 86 85 85 86 83 82 84 85 88 96 107 115 112 100 97 107 106 102 102 103 101 107 120 128 133 141 155 166 185 207 219 238 270 258 245 253 263 268 269 265 260 258 256 253 249 247 249 249 244 236 233 232 228 224 228 231 228 230 237 244 252 258 265 274 279 282 285 286
50 44 33 37 70 86 86 86 83 79 80 83 84 86 85 85 86 84 83 83 80 75 72 73 75 79 86 94 100 101 98 98 101 102 101 102 105 106 107 112 111 106 104 105 108 114 135 167 177 162 218 254 278 288 283 278 274 269 267 266 262 254 249 249 250 241 225 221 223 221 217 218 225 228 233 245 252 260 270 278 286 292 295 297 298
70 52 45 60 83 88 89 95 92 84 81 84 87 88 86 84 85 85 84 83 80 75 72 71 74 80 84 88 94 97 98 97 95 98 102 101 99 99 99 99 97 93 91 92 96 100 103 107 106 93 77 42 360 339 314 297 286 276 272 273 268 256 247 245 241 228 215 207 191 191 206 209 217 234 242 254 268 275 290 301 306 307 305 304 303
76 58 59 77 89 83 80 85 85 82 84 89 90 92 92 90 89 91 91 89 87 84 80 77 79 85 89 91 94 97 99 99 96 99 105 103 96 94 94 92 90 89 91 92 93 94 93 90 89 87 80 68 52 36 21 359 329 295 277 277 278 264 252 252 240 215 197 180 157 151 165 176 165 155 135 93 17 329 329 332 328 320 314 311 307
79 62 74 85 88 82 80 82 81 79 80 88 92 94 95 94 93 93 92 92 94 94 92 89 88 89 90 91 94 96 98 99 98 100 103 103 101 100 98 93 90 90 91 90 88 87 86 83 80 79 74 66 56 48 44 37 29 22 6 347 349 349 6 5 280 176 159 145 133 127 124 123 115 97 77 63 39 17 5 355 348 340 330 322 316
102 91 97 96 90 91 94 93 94 94 90 90 95 97 99 100 97 93 92 94 98 100 99 96 93 91 90 89 91 94 96 97 100 101 101 101 103 104 103 98 94 91 88 86 84 82 81 78 73 69 66 62 57 52 50 45 41 44 45 49 48 43 44 36 23 112 130 123 111 104 99 91 87 79 68 63 56 45 34 19 4 350 337 326 319
116 107 107 104 98 102 105 101 100 100 95 91 90 89 93 97 98 100 100 98 98 100 101 100 97 94 94 93 93 96 97 99 103 104 102 100 99 99 100 99 96 92 87 83 80 78 76 73 68 64 60 59 56 53 53 49 48 52 51 54 61 59 57 58 43 52 87 97 95 86 77 75 79 80 76 73 61 41 28 18 4 349 338 330 322
128 121 120 119 113 113 115 112 111 111 109 106 99 90 88 90 93 104 109 104 100 98 97 97 95 91 90 90 91 95 99 102 104 105 104 102 99 97 96 94 93 90 85 80 75 72 71 68 64 61 58 56 54 52 53 51 48 52 52 53 61 66 66 72 68 55 62 76 80 74 73 82 87 83 76 67 48 30 23 17 8 1 352 343 334
137 134 132 131 128 123 118 118 124 126 123 122 118 103 91 85 88 100 106 105 100 95 92 90 88 84 82 83 86 91 96 101 104 104 104 104 102 100 95 91 90 87 82 77 71 67 64 59 56 55 53 52 52 49 50 50 46 48 51 51 55 63 67 68 66 62 63 71 72 68 72 86 89 81 72 56 38 31 29 26 21 18 17 15 11
145 141 139 136 132 126 117 110 114 123 127 132 133 111 89 81 87 101 106 103 99 95 93 91 86 81 78 79 81 85 89 95 98 100 101 103 103 101 98 94 92 89 86 82 77 71 68 61 55 53 51 51 53 52 52 54 52 49 49 50 50 54 57 60 62 62 62 64 66 70 82 91 87 78 66 50 41 39 36 33 31 32 34 36 38
145 142 140 137 131 129 126 113 104 105 111 119 119 104 86 79 87 102 107 105 101 97 94 92 89 85 81 78 77 78 81 86 90 92 95 97 98 97 95 93 93 92 91 90 88 83 79 73 66 63 61 59 57 57 58 61 62 58 55 58 63 66 66 67 68 70 73 75 80 85 90 88 81 72 63 56 52 50 45 43 44 46 48 50 52
141 142 142 141 136 134 132 124 113 107 108 110 107 99 91 87 90 99 104 105 104 102 99 97 94 91 87 82 80 80 81 84 87 88 89 90 90 91 91 90 90 90 89 89 88 86 83 80 76 73 72 69 64 62 63 63 62 60 61 67 74 78 79 80 81 84 88 89 89 88 85 81 77 72 68 66 64 61 58 57 57 58 60 62 62
135 138 139 137 132 126 123 119 116 113 114 112 105 98 94 91 93 100 104 102 102 106 110 108 101 96 93 90 88 87 86 87 88 89 89 89 89 89 89 89 87 86 84 82 81 80 78 78 78 78 77 73 67 63 61 61 60 61 65 70 75 79 81 83 85 88 93 94 94 91 86 82 80 76 71 68 66 65 65 65 64 65 67 69 70
135 135 136 132 127 123 120 118 118 116 114 110 104 98 92 92 100 107 106 101 98 100 104 110 111 104 97 94 91 88 88 89 90 91 92 93 93 91 89 89 88 85 83 80 77 77 75 74 75 78 79 77 70 63 60 59 61 65 68 69 71 73 77 81 84 90 95 95 92 87 83 81 80 76 71 66 62 61 64 66 67 70 71 72 73
138 136 137 134 130 127 123 121 121 120 114 106 101 98 94 95 100 104 104 101 99 96 95 98 101 101 99 97 91 85 82 83 86 89 92 96 99 100 97 95 93 89 86 82 79 76 76 76 77 79 80 80 74 66 64 66 70 73 74 72 70 69 71 75 81 87 88 85 80 76 73 73 73 71 67 63 60 59 60 60 63 68 72 73 74
143 141 140 139 137 135 131 130 129 125 116 106 100 98 97 98 100 100 98 95 92 92 93 93 93 95 97 98 94 88 83 79 77 81 84 89 99 106 105 103 101 97 92 87 82 79 79 82 84 84 85 83 73 65 73 84 85 83 80 74 69 67 67 67 73 81 81 78 76 71 67 66 69 68 65 64 65 65 63 61 62 66 69 70 71